This is the latest recevied weather packets stored in our database for station/object IZ5MJO-13. If no packets are shown the sender has not sent any weather packets the latest 10 day(s).
| Time | Temp. | Humidity | Pressure | Rain* | Wind** | Luminosity | Snow |
|---|---|---|---|---|---|---|---|
| 1777735721 | 30° C | 20% | 1010 hPa | - | - | - | - |
| 1777734821 | 29.44° C | 22% | 1010.1 hPa | - | - | - | - |
| 1777733921 | 29.44° C | 22% | 1010.2 hPa | - | - | - | - |
| 1777733021 | 30° C | 19% | 1010.3 hPa | - | - | - | - |
| 1777732119 | 30° C | 20% | 1010.5 hPa | - | - | - | - |
| 1777731226 | 30° C | 22% | 1010.6 hPa | - | - | - | - |
| 1777730764 | 17.78° C | 31% | 1014.3 hPa | - | - | - | - |
| 1777730326 | 28.89° C | 22% | 1011 hPa | - | - | - | - |
| 1777729426 | 29.44° C | 23% | 1011.2 hPa | - | - | - | - |
| 1777728525 | 28.89° C | 21% | 1011.4 hPa | - | - | - | - |
| 1777728524 | 17.22° C | 31% | 1014.4 hPa | - | - | - | - |
| 1777727625 | 27.78° C | 19% | 1011.5 hPa | - | - | - | - |
| 1777726725 | 27.78° C | 22% | 1011.8 hPa | - | - | - | - |
| 1777725824 | 26.67° C | 25% | 1011.8 hPa | - | - | - | - |
| 1777724924 | 26.11° C | 25% | 1012 hPa | - | - | - | - |
| 1777724024 | 25.56° C | 26% | 1012.2 hPa | - | - | - | - |
| 1777723124 | 25.56° C | 26% | 1012.4 hPa | - | - | - | - |
| 1777722223 | 25° C | 25% | 1012.6 hPa | - | - | - | - |
| 1777721323 | 24.44° C | 25% | 1012.8 hPa | - | - | - | - |
| 1777720422 | 23.33° C | 25% | 1013 hPa | - | - | - | - |
| 1777719522 | 22.22° C | 25% | 1013.2 hPa | - | - | - | - |
| 1777718622 | 21.11° C | 27% | 1013.4 hPa | - | - | - | - |
| 1777717722 | 20.56° C | 27% | 1013.6 hPa | - | - | - | - |
| 1777716821 | 20.56° C | 27% | 1013.8 hPa | - | - | - | - |
| 1777715921 | 20° C | 27% | 1013.9 hPa | - | - | - | - |
* Rain since midnight (hover to see other rain measurements)
** Current wind speed in m/s (hover to see current wind gust speed)